Effective Sunday, March 17, 2024, the National Weather Service National Data Buoy Center will discontinue its Dial-A-Buoy Interactive Voice Response system. For more information, see Service Change Notice 24-06 (PDF).

Station PSTL1 - 8760922 - Pilot's Station East, SW Pass, LA Image indicating link to RSS feed of recent meteorological observations for station PSTL1


Conditions at PSTL1 as of
(12:42 am CST)
0642 GMT on 02/27/2024:
     

Click on the graph icon in the table below to see a time series plot of the last five days of that observation.

5-day plot - Wind Direction Wind Direction (WDIR): S ( 180 deg true )
5-day plot - Wind Speed Wind Speed (WSPD): 8.0 kts
5-day plot - Wind Gust Wind Gust (GST): 8.9 kts
5-day plot - Atmospheric Pressure Atmospheric Pressure (PRES):30.01 in
5-day plot - Air Temperature Air Temperature (ATMP): 63.1 °F
5-day plot - Water Temperature Water Temperature (WTMP): 52.7 °F
5-day plot - Wind Speed at 10 Meters Wind Speed at 10 meters (WSPD10M): 7.8 kts
5-day plot - Wind Speed at 20 Meters Wind Speed at 20 meters (WSPD20M): 7.8 kts
5-day plot -  Wind Speed, Wind Gust and Atmospheric Pressure Combined plot of Wind Speed, Gust, and Air Pressure
NOS Water Level Observation Network Water Level
Previous observations
TIME
(CST)
5-day plot - Wind Direction
WDIR
 
5-day plot - Wind Speed
WSPD
kts
5-day plot - Wind Gust
GST
kts
5-day plot - Wave Height
WVHT
ft
5-day plot - Dominant Wave Period
DPD
sec
5-day plot - Average Wave Period
APD
sec
5-day plot - Mean Wave Direction
MWD
 
5-day plot - Atmospheric Pressure
PRES
in
5-day plot - Pressure Tendency
PTDY
in
5-day plot - Air Temperature
ATMP
°F
5-day plot - Water Temperature
WTMP
°F
5-day plot - Dew Point
DEWP
°F
5-day plot - Salinity
SAL
psu
5-day plot - Visibility
VIS
nmi
5-day plot - Tide (above MLLW)
TIDE
ft
2024-02-27 12:36 am S 7.0 8.0----30.01- 63.0 52.7----
2024-02-27 12:30 am S 7.0 8.9----30.01- 63.0 52.7----
2024-02-27 12:24 am S 8.0 11.1----30.01- 63.7 52.9----
2024-02-27 12:18 am S 8.0 9.9----30.01- 63.7 52.9----
2024-02-27 12:12 am S 7.0 8.9----30.01- 62.2 52.9----
2024-02-27 12:06 am S 7.0 8.0----30.01- 61.7 52.9----
2024-02-27 12:00 am S 7.0 8.0----30.01-0.03 62.1 52.9----
2024-02-26 11:54 pm S 7.0 8.9----30.01- 62.1 52.7----
2024-02-26 11:48 pm S 8.0 9.9----30.01- 62.4 52.7----
2024-02-26 11:42 pm S 8.0 9.9----30.02- 62.4 52.9----
2024-02-26 11:36 pm S 8.9 11.1----30.01- 62.4 52.9----
2024-02-26 11:30 pm S 8.9 9.9----30.02- 62.4 52.9----
2024-02-26 11:24 pm S 8.0 8.9----30.02- 62.6 52.9----
2024-02-26 11:18 pm S 8.0 9.9----30.02- 62.6 52.9----
2024-02-26 11:12 pm S 8.9 9.9----30.02- 63.0 52.9----
2024-02-26 11:06 pm S 8.9 9.9----30.02- 63.1 53.1----
2024-02-26 11:00 pm S 8.9 9.9----30.03-0.02 63.1 53.1----
2024-02-26 10:54 pm S 8.0 11.1----30.03- 62.6 52.9----
2024-02-26 10:48 pm S 9.9 11.1------------
2024-02-26 10:42 pm S 8.9 9.9----30.03- 63.1 52.9----
2024-02-26 10:36 pm S 7.0 8.9----30.03- 63.1 52.9----
2024-02-26 10:30 pm S 7.0 8.9----30.03- 62.4 52.9----
2024-02-26 10:24 pm S 8.0 8.9----30.03- 62.1 52.9----
2024-02-26 10:18 pm S 8.9 11.1----30.03-------
2024-02-26 10:12 pm S 9.9 11.1----30.03- 63.3 53.1----
2024-02-26 10:06 pm S 11.1 11.1----30.03- 63.5 53.1----
2024-02-26 10:00 pm S 9.9 9.9----30.03+0.00 63.5 53.1----
2024-02-26 09:54 pm S 9.9 11.1----30.03- 63.3 52.9----
2024-02-26 09:48 pm S 9.9 11.1----30.03-- 52.9----
2024-02-26 09:42 pm S 9.9 11.1----30.04- 63.5 52.9----
2024-02-26 09:36 pm S 9.9 11.1----30.03- 63.7 53.1----
2024-02-26 09:30 pm S 9.9 9.9----30.04- 63.7 53.1----
2024-02-26 09:24 pm S 8.9 9.9----30.04- 63.5 53.1----
2024-02-26 09:18 pm S 9.9 9.9------------
2024-02-26 09:12 pm S 9.9 9.9----30.04- 63.9 53.1----
2024-02-26 09:06 pm S 9.9 9.9----30.04- 63.7 53.1----
2024-02-26 09:00 pm S 9.9 9.9----30.04+0.01 63.9 53.1----
2024-02-26 08:54 pm S 9.9 9.9----30.04- 64.0 53.1----
2024-02-26 08:48 pm S 9.9 9.9----30.04-------
2024-02-26 08:42 pm S 9.9 12.0----30.04- 64.0 53.1----
2024-02-26 08:36 pm S 11.1 11.1----30.04- 64.2 53.1----
2024-02-26 08:30 pm S 9.9 11.1----30.04- 64.4 53.1----
2024-02-26 08:24 pm S 8.9 9.9----30.04- 64.8 53.2----
2024-02-26 08:18 pm S 8.9 8.9----30.04-------
2024-02-26 08:12 pm S 8.9 9.9----30.05- 64.8 53.2----
2024-02-26 08:06 pm S 8.0 8.9----30.04- 64.9 53.2----
2024-02-26 08:00 pm S 8.0 8.0----30.04+0.01- 53.2----
2024-02-26 07:54 pm S 8.0 8.0----30.04-- 53.2----
2024-02-26 07:48 pm S 7.0 8.0----30.04-- 53.2----
2024-02-26 07:42 pm S 7.0 7.0----30.04-- 53.2----
2024-02-26 07:36 pm S 6.0 6.0----30.04-- 53.2----
2024-02-26 07:30 pm S 5.1 6.0----30.04- 64.6 53.2----
2024-02-26 07:24 pm S 5.1 6.0----30.04- 64.6 53.4----
2024-02-26 07:18 pm S 6.0 7.0----30.03-- 53.4----
2024-02-26 07:12 pm S 6.0 7.0----30.03- 64.9 53.4----
2024-02-26 07:06 pm S 6.0 6.0----30.03- 64.8 53.6----
2024-02-26 07:00 pm S 5.1 5.1----30.03-0.01 64.6-----
2024-02-26 06:54 pm S 5.1 6.0----30.03- 64.9-----
2024-02-26 06:48 pm S 5.1 6.0----30.03-------
2024-02-26 06:42 pm S 5.1 6.0----30.03- 64.8 53.8----
2024-02-26 06:36 pm S 5.1 6.0----30.03- 64.6 53.6----
2024-02-26 06:30 pm S 5.1 6.0----30.03-------
2024-02-26 06:24 pm S 5.1 6.0----30.03-------
2024-02-26 06:18 pm S 6.0 7.0----30.03-------
2024-02-26 06:12 pm S 7.0 8.0----30.03- 64.9 53.8----
2024-02-26 06:06 pm S 7.0 8.0----30.03- 64.9 53.8----
2024-02-26 06:00 pm S 7.0 8.0----30.03-0.03 64.9 53.6----
2024-02-26 05:54 pm S 8.0 8.9----30.02- 65.1 53.6----
2024-02-26 05:48 pm S 8.0 8.9----30.02-- 53.8----
2024-02-26 05:42 pm S 8.0 8.9----30.02- 65.3 53.6----
2024-02-26 05:36 pm S 8.0 8.9----30.02- 65.3 53.8----
2024-02-26 05:30 pm S 8.0 8.9----30.02-------
2024-02-26 05:24 pm S 8.9 9.9----30.02-------
2024-02-26 05:18 pm S 8.9 8.9----30.02-------
2024-02-26 05:12 pm S 8.0 8.9----30.02- 65.5 54.0----
2024-02-26 05:06 pm S 7.0 8.0----30.03- 65.7 54.0----
2024-02-26 05:00 pm S 7.0 8.0----30.03-0.04 65.8 54.0----
2024-02-26 04:54 pm S 6.0 8.0----30.03- 65.8 54.0----
2024-02-26 04:48 pm S 8.0 8.9----30.03-------
2024-02-26 04:42 pm S 8.0 8.9----30.03- 66.6 54.0----
2024-02-26 04:36 pm S 8.0 8.9----30.03- 66.7 54.0----
2024-02-26 04:30 pm S 8.0 8.9----30.03- 66.7 53.8----
2024-02-26 04:24 pm S 7.0 8.0----30.04- 66.9 53.8----
2024-02-26 04:18 pm S 7.0 8.0----30.04-------
2024-02-26 04:12 pm S 5.1 6.0----30.04- 66.6 53.8----
2024-02-26 04:06 pm S 5.1 7.0----30.05- 66.6 53.8----
2024-02-26 04:00 pm S 5.1 7.0----30.05-0.04 66.7 53.8----
2024-02-26 03:54 pm S 5.1 6.0----30.05- 66.7 53.8----
2024-02-26 03:48 pm S 5.1 6.0----30.05-------
2024-02-26 03:42 pm S 5.1 6.0----30.05- 66.7 53.8----
2024-02-26 03:36 pm S 5.1 6.0----30.05- 66.7 53.8----
2024-02-26 03:30 pm S 4.1 5.1----30.05- 66.0 53.8----
2024-02-26 03:24 pm S 5.1 6.0----30.05- 66.4 53.8----
2024-02-26 03:18 pm S 5.1 6.0----30.05-------
2024-02-26 03:12 pm S 4.1 5.1----30.05- 66.6 53.8----
2024-02-26 03:06 pm S 4.1 5.1----30.06- 66.7 53.8----
2024-02-26 03:00 pm S 4.1 5.1----30.05-0.07 66.9 53.8----
2024-02-26 02:54 pm S 4.1 5.1----30.06- 66.9 53.8----
2024-02-26 02:48 pm S 5.1 6.0----30.06-- 53.8----
2024-02-26 02:42 pm S 6.0 7.0----30.06-- 53.8----
2024-02-26 02:36 pm S 6.0 7.0----30.06-- 53.6----
2024-02-26 02:30 pm S 6.0 7.0----30.06- 66.7 53.6----
2024-02-26 02:24 pm S 5.1 6.0----30.06- 66.7 53.6----
2024-02-26 02:18 pm S 5.1 6.0----30.07- 66.7-----
2024-02-26 02:12 pm S 6.0 6.0----30.07- 66.6-----
2024-02-26 02:06 pm S 6.0 7.0----30.07- 66.4-----
2024-02-26 02:00 pm S 6.0 7.0----30.08-0.06 66.4 53.6----
2024-02-26 01:54 pm S 7.0 8.0----30.08- 66.4 53.6----
2024-02-26 01:48 pmSSE 7.0 8.0----30.07- 66.2 53.6----
2024-02-26 01:42 pmSSE 7.0 8.0----30.08- 66.2 53.4----
2024-02-26 01:36 pmSSE 7.0 8.0----30.08- 66.4 53.4----
2024-02-26 01:30 pmSSE 8.0 8.9----30.08- 66.4 53.4----
2024-02-26 01:24 pmSSE 8.9 9.9----30.08- 66.4 53.2----
2024-02-26 01:18 pmSSE 8.0 8.9----30.08- 66.2 53.2----
2024-02-26 01:12 pmSSE 8.9 8.9----30.08- 66.4 53.2----
2024-02-26 01:06 pmSSE 8.9 8.9----30.09- 66.2 53.2----
2024-02-26 01:00 pmSSE 8.9 8.9----30.09-0.05 66.4 53.2----
2024-02-26 12:54 pmSSE 8.9 8.9----30.09- 66.2 53.1----
2024-02-26 12:48 pmSSE 8.9 8.9----30.09- 65.8 53.1----
2024-02-26 12:42 pmSSE 8.9 9.9----30.10- 66.0 53.1----
2024-02-26 12:36 pmSSE 8.9 9.9----30.10- 65.8 53.1----
2024-02-26 12:30 pmSSE 8.9 8.9----30.10- 66.0 53.1----
2024-02-26 12:24 pmSSE 8.0 8.9----30.11- 65.8 53.1----
2024-02-26 12:18 pmSSE 8.0 8.9----30.11- 66.0 53.1----
2024-02-26 12:12 pmSSE 8.9 8.9----30.11- 65.8 53.1----
2024-02-26 12:06 pmSSE 8.9 8.9----30.12- 65.8 53.1----
2024-02-26 12:00 pmSSE 8.9 8.9----30.12-0.02 65.8 53.1----
2024-02-26 11:54 amSSE 8.9 8.9----30.12- 65.7 53.1----
2024-02-26 11:48 amSSE 6.0 8.0----30.12-- 53.1----
2024-02-26 11:42 amSSE 8.0 8.9----30.12- 65.1 53.1----
2024-02-26 11:36 amSSE 7.0 9.9----30.13- 64.8 52.9----
2024-02-26 11:30 amSSE 8.9 9.9----30.13- 64.8 52.9----
2024-02-26 11:24 amSSE 8.0 9.9----30.13- 64.6 52.7----
2024-02-26 11:18 amSSE 8.9 9.9----30.13-- 52.5----
2024-02-26 11:12 amSSE 7.0 8.9----30.13- 64.4 52.5----
2024-02-26 11:06 amSSE 8.9 9.9----30.13- 64.4 52.5----
2024-02-26 11:00 amSSE 8.9 9.9----30.14+0.00 64.2 52.5----
2024-02-26 10:54 amSSE 7.0 8.0----30.14- 64.0 52.5----
2024-02-26 10:48 amSSE 8.0 9.9----30.14- 64.0 52.5----
2024-02-26 10:42 amSSE 9.9 11.1----30.14- 64.0 52.5----
2024-02-26 10:36 amSSE 8.9 9.9----30.14- 63.9 52.5----
2024-02-26 10:30 amSSE 7.0 8.9----30.14- 63.9 52.5----
2024-02-26 10:24 amSSE 8.0 8.0----30.14- 63.9 52.5----
2024-02-26 10:18 amSSE 8.0 8.9----30.14-- 52.3----
2024-02-26 10:12 am SE 7.0 8.0----30.14- 63.9 52.3----
2024-02-26 10:06 am SE 7.0 8.0----30.14- 63.9 52.3----
2024-02-26 10:00 am SE 7.0 8.0----30.14+0.02 63.9 52.3----
2024-02-26 09:54 am SE 7.0 8.0----30.14- 63.7 52.3----
2024-02-26 09:48 am SE 7.0 8.0----30.14- 63.3 52.3----
2024-02-26 09:42 am SE 7.0 8.0----30.14- 63.3 52.2----
2024-02-26 09:36 am SE 7.0 8.0----30.14- 63.3 52.2----
2024-02-26 09:30 am SE 7.0 8.0----30.14- 63.1 52.2----
2024-02-26 09:24 am SE 7.0 7.0----30.14- 63.0 52.2----
2024-02-26 09:18 am SE 7.0 8.0----30.14-- 52.2----
2024-02-26 09:12 am SE 6.0 7.0----30.14- 62.6 52.2----
2024-02-26 09:06 am SE 5.1 6.0----30.14- 62.8 52.2----
2024-02-26 09:00 am SE 5.1 6.0----30.14+0.03 62.8 52.2----
2024-02-26 08:54 am SE 5.1 6.0----30.14- 62.1 52.2----
2024-02-26 08:48 am SE 5.1 6.0----30.14- 62.1 52.2----
2024-02-26 08:42 am SE 5.1 6.0----30.14- 61.9 52.2----
2024-02-26 08:36 am SE 4.1 6.0----30.14- 62.1 52.0----
2024-02-26 08:30 am SE 4.1 5.1----30.14- 61.9 52.0----
2024-02-26 08:24 am SE 4.1 5.1----30.14- 61.2 52.0----
2024-02-26 08:18 am SE 4.1 5.1----30.14- 60.8 52.0----
2024-02-26 08:12 am SE 4.1 5.1----30.14- 61.0 52.0----
2024-02-26 08:06 am SE 4.1 5.1----30.14- 62.1 52.0----
2024-02-26 08:00 am SE 4.1 5.1----30.14+0.04 62.6 52.0----
2024-02-26 07:54 am SE 2.9 5.1----30.14- 62.4 52.0----
2024-02-26 07:48 am SE 4.1 6.0----30.13- 62.6 52.0----
2024-02-26 07:42 am SE 5.1 6.0----30.13- 62.8 52.0----
2024-02-26 07:36 am SE 5.1 5.1----30.13- 62.2 52.0----
2024-02-26 07:30 am SE 5.1 5.1----30.13- 62.2 52.0----
2024-02-26 07:24 am SE 4.1 5.1----30.13- 61.3 52.0----
2024-02-26 07:18 am SE 2.9 5.1----30.13-- 52.0----
2024-02-26 07:12 am SE 4.1 5.1----30.13- 61.9 52.0----
2024-02-26 07:06 am SE 4.1 5.1----30.13- 60.8 52.0----
2024-02-26 07:00 am SE 4.1 6.0----30.12+0.03 61.0 52.0----
2024-02-26 06:54 am SE 4.1 6.0----30.12- 59.9 52.0----
2024-02-26 06:48 am SE 5.1 6.0----30.12-------
2024-02-26 06:42 am SE 5.1 7.0----30.11- 59.4 52.0----
2024-02-26 06:36 am SE 7.0 7.0----30.11- 59.4 52.0----
2024-02-26 06:30 am SE 6.0 7.0----30.12- 59.5 52.0----
2024-02-26 06:24 am SE 5.1 7.0----30.11- 59.5 52.0----
2024-02-26 06:18 am SE 6.0 7.0----30.11- 59.5 52.0----
2024-02-26 06:12 am SE 5.1 7.0----30.12- 59.7 52.0----
2024-02-26 06:06 am SE 6.0 7.0----30.11- 59.5 52.0----
2024-02-26 06:00 am SE 6.0 6.0----30.11+0.02 59.7 52.0----
2024-02-26 05:54 am SE 5.1 6.0----30.11- 59.7 52.0----
2024-02-26 05:48 am SE 5.1 6.0----30.11- 59.7 52.0----
2024-02-26 05:42 am SE 5.1 5.1----30.11- 60.1 52.2----
2024-02-26 05:36 am SE 5.1 5.1----30.11- 60.4 52.2----
2024-02-26 05:30 am SE 5.1 5.1----30.10- 60.6 52.2----
2024-02-26 05:24 am SE 4.1 5.1----30.11- 61.0 52.2----
2024-02-26 05:18 am SE 5.1 5.1----30.10- 61.7 52.2----
2024-02-26 05:12 amSSE 5.1 5.1----30.10- 62.6 52.2----
2024-02-26 05:06 am SE 5.1 5.1----30.10- 61.5 52.2----
2024-02-26 05:00 am SE 5.1 5.1----30.09-0.01 59.0 52.2----
2024-02-26 04:54 am SE 5.1 5.1----30.10- 58.8 52.2----
2024-02-26 04:48 am SE 5.1 5.1----30.09- 58.5 52.2----
2024-02-26 04:42 am SE 5.1 6.0----30.09- 58.5 52.2----
2024-02-26 04:36 am SE 5.1 6.0----30.09- 58.6 52.2----
2024-02-26 04:30 am SE 5.1 5.1----30.09- 59.0 52.2----
2024-02-26 04:24 am SE 5.1 5.1----30.09- 59.5 52.2----
2024-02-26 04:18 amSSE 4.1 5.1----30.10- 59.9 52.2----
2024-02-26 04:12 am SE 4.1 5.1----30.10- 60.3 52.2----
2024-02-26 04:06 amSSE 4.1 4.1----30.09- 60.8 52.2----
2024-02-26 04:00 amSSE 5.1 7.0----30.09-0.02 61.9 52.2----
2024-02-26 03:54 amSSE 7.0 8.0----30.09- 62.2 52.2----
2024-02-26 03:48 amSSE 7.0 8.0----30.09- 61.9 52.2----
2024-02-26 03:42 am S 6.0 8.0----30.09- 60.4 52.2----
2024-02-26 03:36 amSSE 8.0 8.9----30.09- 61.7 52.2----
2024-02-26 03:30 amSSE 8.9 9.9----30.09- 61.5 52.2----
2024-02-26 03:24 amSSE 9.9 9.9----30.09- 63.0 52.3----
2024-02-26 03:18 amSSE 9.9 11.1----30.09-- 52.3----
2024-02-26 03:12 amSSE 9.9 11.1----30.09- 62.8 52.2----
2024-02-26 03:06 amSSE 9.9 11.1----30.09- 61.5 52.3----
2024-02-26 03:00 amSSE 9.9 11.1----30.09-0.02 62.2 52.2----
2024-02-26 02:54 amSSE 9.9 9.9----30.10- 61.9 52.2----
2024-02-26 02:48 amSSE 9.9 9.9----30.10- 62.2 52.2----
2024-02-26 02:42 amSSE 9.9 9.9----30.10- 62.4 52.3----
2024-02-26 02:36 am S 9.9 9.9----30.10- 61.5 52.3----
2024-02-26 02:30 am S 8.9 8.9----30.10- 61.3 52.3----
2024-02-26 02:24 amSSE 8.9 9.9----30.10- 61.3 52.3----
2024-02-26 02:18 amSSE 8.9 9.9----30.10- 61.7 52.3----
2024-02-26 02:12 amSSE 8.9 8.9----30.11- 61.3 52.3----
2024-02-26 02:06 amSSE 8.0 8.9----30.11- 61.7 52.3----
2024-02-26 02:00 amSSE 8.0 8.0----30.11-0.02 62.1 52.3----
2024-02-26 01:54 amSSE 6.0 7.0----30.11- 62.4 52.2----
2024-02-26 01:48 amSSE 5.1 6.0----30.11- 62.8 52.3----
2024-02-26 01:42 am SE 6.0 6.0----30.11- 63.0 52.2----
2024-02-26 01:36 am SE 6.0 6.0----30.11- 63.0 52.2----
2024-02-26 01:30 am SE 6.0 6.0----30.11- 63.0 52.3----
2024-02-26 01:24 am SE 5.1 7.0----30.11- 62.4 52.3----
2024-02-26 01:18 am SE 7.0 7.0----30.11- 60.6 52.3----
2024-02-26 01:12 am SE 6.0 6.0----30.11- 60.3 52.3----
2024-02-26 01:06 am SE 6.0 7.0----30.11- 60.3 52.3----
2024-02-26 01:00 am SE 7.0 7.0----30.11-0.04 60.3 52.3----
2024-02-26 12:54 am SE 7.0 8.0----30.11- 60.3 52.3----